Find Kupon

NORAD ID: 25045 Int'l Des: 1997-070 Owner: TSBM Country: RU operational
HEOCIRCULARGSO

当前视图

正在加载3D地球...

关于 Kupon

正在加载描述...

即将过境

Passes for default location (London). Set your location on the main map for personalized predictions.

高度历史

Loading altitude history...

两行轨道根数

1 25045U 97070A 26149.04575469 -.00000260 00000-0 00000-0 0 9990
2 25045 14.5522 354.7791 0004202 316.2040 43.7216 1.00261638104451
Epoch: May 29, 2026 • Age: 25 hours

当前状态

高度 35780.1 km
速度 3.08 km/s
星下点 4.28°N, 91.13°E
发射日期 Nov 12, 1997
运行时间 28.5 years
类型 other

技术详情

分类 Payload
质量 2300.00 kg
干质量 2200.00 kg
总质量 2300.00 kg
长度 5.00 m
直径 2.00 m
跨度 10.00 m
形状 Box + 2 Pan
制造商 NPOL
平台类型 Kupon
阶段状态 In Orbit
所有者/国家 TSBM/RU

Most Searched